TAG103 ESGG-ESSA

Flight info

Callsign TAG103
Flight time 0h 42m
Altitude 29000
Route LABAN N873 ARS T317 ELTOK
Aircraft B738/M-SDE2E3FGHIRWXY/LB1

Departure

Time 2026-05-06 13:28
Airport Göteborg Landvetter Airport (ESGG)

Arrival

Time 2026-05-06 14:10
Airport Stockholm-Arlanda Airport (ESSA)
Time Latitude Longitude Altitude Speed Heading
2026-05-06 12:58 57.66888 12.29420 515 ft 0 kts 116°
2026-05-06 13:20 57.66896 12.29390 515 ft 4 kts 116°
2026-05-06 13:20 57.66906 12.29345 515 ft 4 kts 98°
2026-05-06 13:20 57.66904 12.29298 515 ft 4 kts 59°
2026-05-06 13:21 57.66890 12.29272 515 ft 1 kts 26°
2026-05-06 13:21 57.66887 12.29269 515 ft 0 kts 26°
2026-05-06 13:23 57.66921 12.29299 515 ft 12 kts 24°
2026-05-06 13:23 57.66977 12.29304 515 ft 7 kts 320°
2026-05-06 13:23 57.67008 12.29222 515 ft 7 kts 316°
2026-05-06 13:24 57.67043 12.29207 515 ft 2 kts 358°
2026-05-06 13:24 57.67072 12.29214 515 ft 11 kts 18°
2026-05-06 13:24 57.67177 12.29307 515 ft 20 kts 26°
2026-05-06 13:24 57.67254 12.29375 515 ft 0 kts 25°
2026-05-06 13:25 57.67263 12.29384 515 ft 5 kts 28°
2026-05-06 13:25 57.67309 12.29427 515 ft 0 kts 27°
2026-05-06 13:25 57.67341 12.29458 515 ft 12 kts 26°
2026-05-06 13:25 57.67405 12.29491 515 ft 6 kts 312°
2026-05-06 13:26 57.67444 12.29352 515 ft 17 kts 295°
2026-05-06 13:26 57.67449 12.29111 515 ft 20 kts 245°
2026-05-06 13:26 57.67376 12.28974 514 ft 7 kts 202°
2026-05-06 13:26 57.67373 12.28972 514 ft 0 kts 204°
2026-05-06 13:27 57.67364 12.28964 514 ft 17 kts 204°
2026-05-06 13:27 57.66949 12.28580 512 ft 113 kts 206°
2026-05-06 13:28 57.65987 12.27712 558 ft 188 kts 208°
2026-05-06 13:28 57.64738 12.26520 1186 ft 208 kts 209°
2026-05-06 13:28 57.63412 12.25369 2126 ft 207 kts 198°
2026-05-06 13:28 57.62033 12.25553 3201 ft 203 kts 160°
2026-05-06 13:29 57.60689 12.26564 3628 ft 214 kts 159°
2026-05-06 13:29 57.59284 12.27560 4096 ft 216 kts 159°
2026-05-06 13:29 57.57938 12.28800 4634 ft 219 kts 139°
2026-05-06 13:29 57.57066 12.31100 5021 ft 223 kts 113°
2026-05-06 13:30 57.56725 12.34055 5166 ft 240 kts 96°
2026-05-06 13:30 57.56651 12.37290 5561 ft 259 kts 89°
2026-05-06 13:30 57.57209 12.40548 6147 ft 273 kts 64°
2026-05-06 13:30 57.58089 12.43704 6560 ft 273 kts 66°
2026-05-06 13:31 57.59055 12.46747 6986 ft 273 kts 56°
2026-05-06 13:31 57.60058 12.49752 7406 ft 275 kts 63°
2026-05-06 13:31 57.60125 12.49988 7439 ft 275 kts 63°
2026-05-06 13:32 57.60558 12.51608 7677 ft 276 kts 65°
2026-05-06 13:32 57.60975 12.53312 7900 ft 277 kts 66°
2026-05-06 13:32 57.61234 12.54424 8046 ft 277 kts 67°
2026-05-06 13:32 57.62041 12.57721 8490 ft 283 kts 57°
2026-05-06 13:33 57.63411 12.60269 8940 ft 284 kts 35°
2026-05-06 13:33 57.65051 12.62375 9408 ft 288 kts 33°
2026-05-06 13:33 57.66728 12.64485 10064 ft 293 kts 33°
2026-05-06 13:33 57.68473 12.66674 10483 ft 311 kts 33°
2026-05-06 13:34 57.70334 12.69018 10684 ft 333 kts 33°
2026-05-06 13:34 57.72292 12.71498 11078 ft 345 kts 33°
2026-05-06 13:34 57.74310 12.74065 11549 ft 355 kts 33°
2026-05-06 13:34 57.75699 12.75837 11873 ft 361 kts 33°
2026-05-06 13:35 57.78483 12.79403 12504 ft 371 kts 33°
2026-05-06 13:35 57.79936 12.81270 12824 ft 376 kts 33°
2026-05-06 13:35 57.82107 12.84063 13326 ft 382 kts 33°
2026-05-06 13:35 57.84320 12.86913 13820 ft 388 kts 33°
2026-05-06 13:36 57.86561 12.89804 14248 ft 393 kts 33°
2026-05-06 13:36 57.88797 12.92692 14689 ft 398 kts 33°
2026-05-06 13:36 57.91086 12.95655 15139 ft 402 kts 33°
2026-05-06 13:36 57.93403 12.98659 15602 ft 406 kts 33°
2026-05-06 13:37 57.95735 13.01687 16063 ft 409 kts 32°
2026-05-06 13:37 57.98087 13.04747 16531 ft 412 kts 32°
2026-05-06 13:37 58.00455 13.07831 17011 ft 415 kts 32°
2026-05-06 13:37 58.02841 13.10945 17497 ft 418 kts 32°
2026-05-06 13:38 58.05235 13.14075 17990 ft 420 kts 32°
2026-05-06 13:38 58.07642 13.17226 18446 ft 422 kts 32°
2026-05-06 13:38 58.10066 13.20406 18876 ft 424 kts 32°
2026-05-06 13:38 58.12491 13.23589 19305 ft 426 kts 32°
2026-05-06 13:39 58.14936 13.26805 19758 ft 428 kts 32°
2026-05-06 13:39 58.17339 13.30148 20193 ft 432 kts 39°
2026-05-06 13:39 58.19425 13.34286 20664 ft 435 kts 47°
2026-05-06 13:39 58.21373 13.38677 21121 ft 437 kts 49°
2026-05-06 13:40 58.23301 13.43147 21595 ft 438 kts 49°
2026-05-06 13:40 58.25234 13.47623 22064 ft 439 kts 49°
2026-05-06 13:40 58.27188 13.52095 22547 ft 440 kts 48°
2026-05-06 13:40 58.29155 13.56547 23037 ft 441 kts 48°
2026-05-06 13:41 58.31139 13.61007 23572 ft 441 kts 48°
2026-05-06 13:41 58.33126 13.65457 23985 ft 442 kts 48°
2026-05-06 13:41 58.35117 13.69916 24406 ft 442 kts 48°
2026-05-06 13:41 58.37109 13.74383 24835 ft 442 kts 48°
2026-05-06 13:42 58.39071 13.78792 25228 ft 442 kts 48°
2026-05-06 13:42 58.41058 13.83270 25669 ft 442 kts 48°
2026-05-06 13:42 58.43039 13.87741 26109 ft 441 kts 49°
2026-05-06 13:42 58.45015 13.92211 26578 ft 440 kts 49°
2026-05-06 13:43 58.46987 13.96681 27026 ft 439 kts 49°
2026-05-06 13:43 58.48979 14.01207 27499 ft 438 kts 49°
2026-05-06 13:43 58.50936 14.05660 27976 ft 437 kts 49°
2026-05-06 13:43 58.52861 14.10048 28467 ft 435 kts 50°
2026-05-06 13:44 58.54798 14.14475 28975 ft 434 kts 49°
2026-05-06 13:44 58.58757 14.23537 28981 ft 451 kts 49°
2026-05-06 13:45 58.62847 14.32941 28981 ft 466 kts 50°
2026-05-06 13:45 58.67053 14.42658 28981 ft 479 kts 50°
2026-05-06 13:45 58.69196 14.47622 28973 ft 485 kts 50°
2026-05-06 13:46 58.73548 14.57741 28970 ft 496 kts 50°
2026-05-06 13:46 58.77973 14.68075 28966 ft 504 kts 50°
2026-05-06 13:47 58.82465 14.78609 28960 ft 512 kts 50°
2026-05-06 13:47 58.87008 14.89315 28954 ft 518 kts 50°
2026-05-06 13:48 58.91590 15.00158 28954 ft 523 kts 50°
2026-05-06 13:48 58.96205 15.11134 28954 ft 527 kts 51°
2026-05-06 13:49 59.00842 15.22213 28984 ft 531 kts 50°
2026-05-06 13:49 59.05504 15.33404 28960 ft 534 kts 50°
2026-05-06 13:50 59.10170 15.44660 28868 ft 536 kts 51°
2026-05-06 13:50 59.12533 15.50381 28032 ft 543 kts 50°
2026-05-06 13:50 59.14871 15.56057 27354 ft 531 kts 51°
2026-05-06 13:51 59.17153 15.61608 26808 ft 519 kts 50°
2026-05-06 13:51 59.19381 15.67039 26261 ft 507 kts 50°
2026-05-06 13:51 59.21563 15.72374 25727 ft 497 kts 50°
2026-05-06 13:51 59.23692 15.77592 25242 ft 485 kts 50°
2026-05-06 13:52 59.25758 15.82672 24723 ft 472 kts 50°
2026-05-06 13:52 59.27776 15.87640 24223 ft 463 kts 50°
2026-05-06 13:52 59.29774 15.92568 23743 ft 461 kts 50°
2026-05-06 13:52 59.31754 15.97459 23206 ft 458 kts 50°
2026-05-06 13:53 59.33724 16.02339 22630 ft 455 kts 50°
2026-05-06 13:53 59.35687 16.07210 22063 ft 453 kts 50°
2026-05-06 13:53 59.37628 16.12034 21508 ft 450 kts 50°
2026-05-06 13:53 59.39556 16.16840 20967 ft 446 kts 50°
2026-05-06 13:54 59.41467 16.21610 20434 ft 443 kts 50°
2026-05-06 13:54 59.43359 16.26357 19910 ft 439 kts 50°
2026-05-06 13:54 59.45227 16.31060 19414 ft 431 kts 50°
2026-05-06 13:54 59.47042 16.35646 18890 ft 419 kts 49°
2026-05-06 13:55 59.48808 16.40115 18382 ft 409 kts 49°
2026-05-06 13:55 59.50531 16.44478 17794 ft 399 kts 49°
2026-05-06 13:55 59.52215 16.48746 17215 ft 390 kts 49°
2026-05-06 13:55 59.53858 16.52915 16659 ft 381 kts 49°
2026-05-06 13:56 59.55464 16.56998 16102 ft 373 kts 49°
2026-05-06 13:56 59.57037 16.61007 15564 ft 366 kts 49°
2026-05-06 13:56 59.58651 16.64818 15015 ft 356 kts 41°
2026-05-06 13:56 59.60515 16.67901 14504 ft 345 kts 32°
2026-05-06 13:57 59.62431 16.70595 13995 ft 339 kts 31°
2026-05-06 13:57 59.64368 16.73292 13439 ft 333 kts 31°
2026-05-06 13:57 59.66222 16.75884 12869 ft 328 kts 32°
2026-05-06 13:57 59.68068 16.78484 12329 ft 324 kts 32°
2026-05-06 13:58 59.69887 16.81062 11772 ft 320 kts 32°
2026-05-06 13:58 59.71683 16.83619 11229 ft 316 kts 33°
2026-05-06 13:58 59.73457 16.86153 10690 ft 312 kts 33°
2026-05-06 13:58 59.75053 16.88437 10198 ft 309 kts 34°
2026-05-06 13:59 59.76495 16.90503 9750 ft 306 kts 34°
2026-05-06 13:59 59.78211 16.92968 9173 ft 303 kts 34°
2026-05-06 13:59 59.79909 16.95408 8598 ft 300 kts 35°
2026-05-06 13:59 59.81534 16.97967 8031 ft 297 kts 47°
2026-05-06 14:00 59.82517 17.01510 7481 ft 294 kts 74°
2026-05-06 14:00 59.83018 17.05427 6969 ft 291 kts 77°
2026-05-06 14:00 59.83500 17.09319 6442 ft 290 kts 77°
2026-05-06 14:00 59.83977 17.13198 5875 ft 288 kts 77°
2026-05-06 14:01 59.84448 17.17055 5323 ft 286 kts 77°
2026-05-06 14:01 59.84907 17.20827 5089 ft 274 kts 77°
2026-05-06 14:01 59.85345 17.24404 4987 ft 258 kts 77°
2026-05-06 14:01 59.85758 17.27795 4998 ft 251 kts 77°
2026-05-06 14:02 59.86175 17.31173 4985 ft 251 kts 77°
2026-05-06 14:02 59.86585 17.34501 5006 ft 251 kts 77°
2026-05-06 14:02 59.87005 17.37916 4999 ft 250 kts 77°
2026-05-06 14:02 59.87402 17.41239 4982 ft 251 kts 77°
2026-05-06 14:03 59.87689 17.44716 4635 ft 257 kts 89°
2026-05-06 14:03 59.87689 17.48300 4334 ft 254 kts 92°
2026-05-06 14:03 59.87650 17.51777 4053 ft 249 kts 92°
2026-05-06 14:03 59.87609 17.55135 4003 ft 245 kts 92°
2026-05-06 14:04 59.87569 17.58532 4009 ft 247 kts 92°
2026-05-06 14:04 59.87528 17.61995 3713 ft 253 kts 92°
2026-05-06 14:04 59.87486 17.65485 3391 ft 251 kts 92°
2026-05-06 14:04 59.87443 17.68964 3047 ft 251 kts 92°
2026-05-06 14:05 59.87397 17.72430 2716 ft 250 kts 92°
2026-05-06 14:05 59.87348 17.75850 2526 ft 243 kts 92°
2026-05-06 14:05 59.87306 17.79124 2478 ft 229 kts 92°
2026-05-06 14:05 59.87271 17.82220 2488 ft 222 kts 93°
2026-05-06 14:06 59.87232 17.85266 2515 ft 219 kts 92°
2026-05-06 14:06 59.87197 17.88314 2482 ft 220 kts 93°
2026-05-06 14:06 59.86828 17.91220 2466 ft 218 kts 124°
2026-05-06 14:06 59.85713 17.93187 2484 ft 218 kts 158°
2026-05-06 14:07 59.84314 17.94286 2493 ft 217 kts 162°
2026-05-06 14:07 59.82887 17.95295 2503 ft 219 kts 163°
2026-05-06 14:07 59.81459 17.96311 2500 ft 215 kts 162°
2026-05-06 14:07 59.80064 17.97315 2476 ft 212 kts 162°
2026-05-06 14:08 59.78696 17.98306 2485 ft 207 kts 162°
2026-05-06 14:08 59.77322 17.99281 2486 ft 212 kts 160°
2026-05-06 14:08 59.75930 17.99903 2346 ft 205 kts 187°
2026-05-06 14:08 59.74586 17.99271 2124 ft 196 kts 191°
2026-05-06 14:09 59.73259 17.98967 1861 ft 186 kts 187°
2026-05-06 14:09 59.72000 17.98501 1612 ft 181 kts 191°
2026-05-06 14:09 59.70777 17.98028 1366 ft 177 kts 190°
2026-05-06 14:09 59.69569 17.97589 1100 ft 176 kts 190°
2026-05-06 14:10 59.68377 17.97157 863 ft 171 kts 191°
2026-05-06 14:10 59.67243 17.96748 645 ft 157 kts 192°
2026-05-06 14:10 59.66243 17.96398 507 ft 139 kts 176°
2026-05-06 14:10 59.65746 17.96939 143 ft 0 kts 249°
2026-05-06 14:11 59.65746 17.96938 138 ft 0 kts 242°
2026-05-06 14:11 59.65746 17.96939 138 ft 0 kts 242°